| time (UTC) | temp C | wind direction | speed KPH | gust KPH | rain 1hr cm | rain 24hr cm | rain mn cm | humidity % | barometer mb |
| 20260506153506 | 11 | 1 | 8.0 | 12.9 | 0.00 | 0.76 | 0.03 | 39 | 1012.5 |
| 20260506152505 | 10 | 13 | 11.3 | 17.7 | 0.00 | 0.76 | 0.03 | 39 | 1012.5 |
| 20260506152005 | 10 | 5 | 12.9 | 17.7 | 0.00 | 0.76 | 0.03 | 39 | 1012.4 |
| 20260506151506 | 10 | 353 | 12.9 | 17.7 | 0.00 | 0.76 | 0.03 | 38 | 1012.3 |
| 20260506150506 | 10 | 5 | 12.9 | 14.5 | 0.00 | 0.76 | 0.03 | 41 | 1012.0 |
| 20260506150007 | 10 | 359 | 11.3 | 14.5 | 0.00 | 0.76 | 0.03 | 41 | 1012.2 |
| 20260506145005 | 10 | 19 | 12.9 | 22.5 | 0.00 | 0.76 | 0.03 | 39 | 1012.0 |
| 20260506144505 | 11 | 3 | 16.1 | 24.1 | 0.00 | 0.76 | 0.03 | 40 | 1012.1 |
| 20260506143506 | 10 | 45 | 12.9 | 16.1 | 0.03 | 0.76 | 0.03 | 38 | 1011.8 |
| 20260506143006 | 11 | 55 | 12.9 | 14.5 | 0.03 | 0.76 | 0.03 | 39 | 1011.6 |
| 20260506142507 | 11 | 41 | 11.3 | 14.5 | 0.03 | 0.76 | 0.03 | 39 | 1011.8 |
| 20260506142005 | 11 | 19 | 11.3 | 14.5 | 0.03 | 0.76 | 0.03 | 38 | 1011.7 |
| 20260506141505 | 10 | 15 | 9.7 | 14.5 | 0.03 | 0.76 | 0.03 | 40 | 1011.8 |
| 20260506140506 | 10 | 359 | 12.9 | 16.1 | 0.03 | 0.76 | 0.03 | 40 | 1011.5 |
| 20260506140005 | 10 | 5 | 11.3 | 16.1 | 0.03 | 0.76 | 0.03 | 40 | 1011.5 |
| 20260506135505 | 10 | 25 | 11.3 | 16.1 | 0.03 | 0.76 | 0.03 | 40 | 1011.4 |
| 20260506135007 | 10 | 24 | 9.7 | 14.5 | 0.03 | 0.76 | 0.03 | 41 | 1011.6 |
| 20260506134005 | 10 | 4 | 14.5 | 16.1 | 0.03 | 0.76 | 0.03 | 40 | 1011.2 |
| 20260506133505 | 10 | 351 | 14.5 | 16.1 | 0.00 | 0.71 | 0.00 | 42 | 1011.1 |
| 20260506133006 | 10 | 346 | 11.3 | 16.1 | 0.00 | 0.71 | 0.00 | 42 | 1011.3 |
| 20260506132506 | 9 | 4 | 9.7 | 14.5 | 0.00 | 0.71 | 0.00 | 45 | 1011.3 |
| 20260506132005 | 9 | 359 | 11.3 | 17.7 | 0.00 | 0.71 | 0.00 | 43 | 1011.3 |
| 20260506131505 | 9 | 356 | 11.3 | 17.7 | 0.00 | 0.71 | 0.00 | 44 | 1011.2 |
| 20260506131006 | 9 | 5 | 11.3 | 12.9 | 0.00 | 0.71 | 0.00 | 44 | 1011.0 |
| 20260506130005 | 8 | 11 | 11.3 | 17.7 | 0.00 | 0.71 | 0.00 | 44 | 1010.7 |
| 20260506125507 | 8 | 16 | 11.3 | 24.1 | 0.00 | 0.71 | 0.00 | 46 | 1010.6 |
| 20260506125005 | 8 | 14 | 9.7 | 24.1 | 0.00 | 0.71 | 0.00 | 49 | 1010.7 |
| 20260506124505 | 8 | 4 | 8.0 | 11.3 | 0.00 | 0.71 | 0.00 | 53 | 1010.5 |
| 20260506124006 | 8 | 352 | 9.7 | 12.9 | 0.00 | 0.71 | 0.00 | 56 | 1010.5 |
| 20260506123005 | 8 | 343 | 8.0 | 11.3 | 0.00 | 0.71 | 0.00 | 55 | 1010.6 |
| 20260506122506 | 8 | 346 | 8.0 | 11.3 | 0.00 | 0.71 | 0.00 | 55 | 1010.7 |
| 20260506122005 | 8 | 2 | 8.0 | 9.7 | 0.00 | 0.71 | 0.00 | 54 | 1010.3 |
| 20260506121506 | 8 | 9 | 8.0 | 16.1 | 0.00 | 0.71 | 0.00 | 54 | 1010.4 |
| 20260506121005 | 8 | 26 | 8.0 | 16.1 | 0.00 | 0.71 | 0.00 | 53 | 1010.4 |
| 20260506120506 | 8 | 19 | 8.0 | 11.3 | 0.00 | 0.71 | 0.00 | 54 | 1010.4 |
| 20260506120005 | 8 | 1 | 8.0 | 11.3 | 0.00 | 0.71 | 0.00 | 54 | 1010.3 |
| 20260506115506 | 8 | 356 | 6.4 | 9.7 | 0.00 | 0.71 | 0.00 | 54 | 1010.3 |
| 20260506115005 | 8 | 356 | 8.0 | 11.3 | 0.00 | 0.00 | 0.00 | 55 | 1010.3 |
| 20260506113505 | 8 | 357 | 9.7 | 14.5 | 0.00 | 0.00 | 0.00 | 55 | 1009.8 |
| 20260506113004 | 8 | 328 | 12.9 | 16.1 | 0.00 | 0.00 | 0.00 | 55 | 1009.6 |
| 20260506112504 | 8 | 320 | 11.3 | 16.1 | 0.00 | 0.00 | 0.00 | 55 | 1009.8 |
| 20260506112006 | 8 | 339 | 8.0 | 9.7 | 0.00 | 0.00 | 0.00 | 58 | 1009.4 |
| 20260506111505 | 8 | 342 | 6.4 | 9.7 | 0.00 | 0.00 | 0.00 | 58 | 1009.3 |
| 20260506111006 | 7 | 354 | 6.4 | 8.0 | 0.00 | 0.00 | 0.00 | 59 | 1009.4 |
| 20260506110505 | 7 | 352 | 6.4 | 8.0 | 0.00 | 0.00 | 0.00 | 59 | 1009.4 |
| 20260506110005 | 7 | 334 | 4.8 | 8.0 | 0.00 | 0.00 | 0.00 | 59 | 1009.2 |
| 20260506105505 | 7 | 319 | 4.8 | 8.0 | 0.00 | 0.00 | 0.00 | 59 | 1009.3 |
| 20260506105006 | 7 | 317 | 4.8 | 6.4 | 0.00 | 0.00 | 0.00 | 59 | 1009.3 |
| 20260506104005 | 7 | 311 | 4.8 | 6.4 | 0.00 | 0.00 | 0.00 | 58 | 1008.9 |
| 20260506103505 | 7 | 278 | 4.8 | 6.4 | 0.00 | 0.00 | 0.00 | 58 | 1008.8 |
| 20260506103006 | 7 | 286 | 3.2 | 6.4 | 0.00 | 0.00 | 0.00 | 58 | 1009.0 |
| 20260506102006 | 7 | 314 | 1.6 | 4.8 | 0.00 | 0.00 | 0.00 | 58 | 1008.8 |
| 20260506101506 | 7 | 317 | 1.6 | 4.8 | 0.00 | 0.00 | 0.00 | 57 | 1008.6 |
| 20260506101005 | 8 | 323 | 0.0 | 3.2 | 0.00 | 0.00 | 0.00 | 57 | 1008.3 |
| 20260506100504 | 8 | 319 | 1.6 | 6.4 | 0.00 | 0.00 | 0.00 | 56 | 1008.4 |
| 20260506095505 | 8 | 313 | 3.2 | 6.4 | 0.00 | 0.00 | 0.00 | 55 | 1008.8 |
| 20260506095006 | 8 | 294 | 4.8 | 8.0 | 0.00 | 0.00 | 0.00 | 54 | 1008.7 |
| 20260506094505 | 8 | 275 | 4.8 | 8.0 | 0.00 | 0.00 | 0.00 | 54 | 1008.6 |
| 20260506094006 | 8 | 266 | 4.8 | 6.4 | 0.00 | 0.00 | 0.00 | 54 | 1009.0 |
| 20260506093505 | 8 | 258 | 6.4 | 11.3 | 0.00 | 0.00 | 0.00 | 55 | 1008.8 |
| 20260506093005 | 8 | 251 | 8.0 | 11.3 | 0.00 | 0.00 | 0.00 | 55 | 1008.9 |
| 20260506092505 | 8 | 256 | 9.7 | 11.3 | 0.00 | 0.00 | 0.00 | 55 | 1009.0 |
| 20260506092005 | 8 | 254 | 9.7 | 11.3 | 0.00 | 0.00 | 0.00 | 54 | 1009.0 |
| 20260506091506 | 8 | 258 | 6.4 | 9.7 | 0.00 | 0.00 | 0.00 | 53 | 1008.9 |
| 20260506090505 | 8 | 280 | 6.4 | 6.4 | 0.00 | 0.00 | 0.00 | 53 | 1008.8 |
| 20260506090004 | 8 | 295 | 6.4 | 9.7 | 0.00 | 0.00 | 0.00 | 53 | 1008.6 |
| 20260506085505 | 8 | 270 | 8.0 | 12.9 | 0.00 | 0.00 | 0.00 | 52 | 1008.7 |
| 20260506085005 | 8 | 275 | 11.3 | 17.7 | 0.00 | 0.00 | 0.00 | 53 | 1008.9 |
| 20260506084505 | 8 | 264 | 12.9 | 17.7 | 0.00 | 0.00 | 0.00 | 53 | 1009.2 |
| 20260506084005 | 8 | 230 | 12.9 | 16.1 | 0.00 | 0.00 | 0.00 | 53 | 1009.3 |
| 20260506083505 | 8 | 223 | 14.5 | 17.7 | 0.00 | 0.00 | 0.00 | 54 | 1008.9 |
| 20260506083005 | 8 | 230 | 12.9 | 17.7 | 0.00 | 0.00 | 0.00 | 53 | 1008.5 |
| 20260506082004 | 8 | 226 | 16.1 | 17.7 | 0.00 | 0.00 | 0.00 | 54 | 1008.6 |
| 20260506081505 | 8 | 227 | 14.5 | 16.1 | 0.00 | 0.00 | 0.00 | 54 | 1008.5 |
| 20260506080505 | 8 | 225 | 16.1 | 17.7 | 0.00 | 0.00 | 0.00 | 54 | 1008.5 |
| 20260506073505 | 8 | 228 | 12.9 | 17.7 | 0.00 | 0.00 | 0.00 | 56 | 1008.6 |
| 20260506073005 | 8 | 222 | 12.9 | 14.5 | 0.00 | 0.00 | 0.00 | 57 | 1008.6 |
| 20260506072506 | 8 | 227 | 12.9 | 14.5 | 0.00 | 0.00 | 0.00 | 58 | 1008.6 |
| 20260506072006 | 8 | 229 | 11.3 | 12.9 | 0.00 | 0.00 | 0.00 | 59 | 1008.7 |
| 20260506071505 | 8 | 224 | 11.3 | 14.5 | 0.00 | 0.00 | 0.00 | 59 | 1008.5 |
| 20260506071005 | 8 | 225 | 11.3 | 14.5 | 0.00 | 0.00 | 0.00 | 59 | 1008.8 |
| 20260506062005 | 7 | 217 | 12.9 | 14.5 | 0.00 | 0.00 | 0.00 | 65 | 1009.0 |
| 20260506061505 | 7 | 216 | 11.3 | 14.5 | 0.00 | 0.00 | 0.00 | 67 | 1008.9 |
| 20260506061005 | 7 | 209 | 8.0 | 12.9 | 0.00 | 0.00 | 0.00 | 68 | 1009.1 |
| 20260506060504 | 6 | 224 | 6.4 | 6.4 | 0.00 | 0.00 | 0.00 | 69 | 1009.3 |
| 20260506051004 | 6 | 312 | 4.8 | 4.8 | 0.00 | 0.00 | 0.00 | 68 | 1009.5 |
| 20260506050505 | 6 | 314 | 4.8 | 6.4 | 0.00 | 0.00 | 0.00 | 68 | 1009.4 |
| 20260506045004 | 7 | 318 | 4.8 | 6.4 | 0.03 | 0.00 | 0.00 | 69 | 1009.6 |
| 20260506044504 | 7 | 318 | 4.8 | 6.4 | 0.03 | 0.00 | 0.00 | 69 | 1009.5 |
| 20260506044005 | 7 | 325 | 4.8 | 6.4 | 0.03 | 0.00 | 0.00 | 70 | 1009.5 |
| 20260506043506 | 7 | 331 | 4.8 | 6.4 | 0.03 | 0.00 | 0.00 | 70 | 1009.5 |
| 20260506043005 | 7 | 327 | 3.2 | 4.8 | 0.05 | 0.00 | 0.00 | 70 | 1009.3 |
| 20260506042506 | 7 | 335 | 3.2 | 3.2 | 0.05 | 0.00 | 0.00 | 70 | 1009.2 |
| 20260506041004 | 8 | 312 | 3.2 | 4.8 | 0.05 | 0.00 | 0.00 | 70 | 1009.2 |
| 20260506040505 | 8 | 329 | 3.2 | 3.2 | 0.10 | 0.00 | 0.00 | 70 | 1009.0 |
| 20260506040006 | 8 | 328 | 3.2 | 4.8 | 0.10 | 0.00 | 0.00 | 70 | 1009.1 |
| 20260506035505 | 8 | 308 | 3.2 | 4.8 | 0.10 | 0.00 | 0.71 | 70 | 1009.0 |
| 20260506035005 | 8 | 281 | 3.2 | 3.2 | 0.05 | 0.00 | 0.69 | 70 | 1009.2 |
| 20260506034504 | 8 | 278 | 3.2 | 6.4 | 0.10 | 0.00 | 0.69 | 70 | 1009.3 |
| 20260506034004 | 8 | 296 | 3.2 | 6.4 | 0.10 | 0.00 | 0.69 | 70 | 1009.3 |
| 20260506033505 | 8 | 284 | 3.2 | 4.8 | 0.10 | 0.00 | 0.69 | 70 | 1009.3 |
| 20260506033005 | 8 | 292 | 1.6 | 4.8 | 0.05 | 0.00 | 0.66 | 70 | 1009.3 |
| 20260506032504 | 8 | 339 | 1.6 | 4.8 | 0.05 | 0.00 | 0.66 | 70 | 1009.2 |
| 20260506032004 | 8 | 329 | 3.2 | 6.4 | 0.10 | 0.00 | 0.66 | 70 | 1009.2 |
| 20260506031505 | 9 | 323 | 3.2 | 6.4 | 0.10 | 0.00 | 0.66 | 70 | 1009.3 |
| 20260506031006 | 9 | 317 | 4.8 | 4.8 | 0.10 | 0.00 | 0.66 | 70 | 1009.3 |
| 20260506030506 | 9 | 308 | 4.8 | 6.4 | 0.10 | 0.00 | 0.64 | 71 | 1009.2 |
| 20260506030005 | 9 | 283 | 4.8 | 6.4 | 0.10 | 0.00 | 0.64 | 71 | 1009.3 |
| 20260506024505 | 10 | 264 | 6.4 | 8.0 | 0.05 | 0.00 | 0.61 | 72 | 1009.4 |
| 20260506024005 | 10 | 270 | 6.4 | 9.7 | 0.05 | 0.00 | 0.61 | 72 | 1009.4 |
| 20260506023504 | 10 | 285 | 8.0 | 9.7 | 0.05 | 0.00 | 0.61 | 71 | 1009.5 |
| 20260506023005 | 10 | 275 | 8.0 | 9.7 | 0.05 | 0.00 | 0.61 | 71 | 1009.5 |
| 20260506022504 | 10 | 258 | 6.4 | 9.7 | 0.05 | 0.00 | 0.61 | 71 | 1009.6 |
| 20260506022004 | 10 | 254 | 8.0 | 11.3 | 0.03 | 0.00 | 0.56 | 71 | 1009.5 |
| 20260506021505 | 10 | 254 | 9.7 | 12.9 | 0.03 | 0.00 | 0.56 | 70 | 1009.3 |
| 20260506021004 | 10 | 253 | 11.3 | 12.9 | 0.03 | 0.00 | 0.56 | 70 | 1009.2 |
| 20260506020504 | 10 | 254 | 11.3 | 12.9 | 0.00 | 0.00 | 0.53 | 70 | 1009.1 |
| 20260506020005 | 10 | 269 | 8.0 | 12.9 | 0.00 | 0.00 | 0.53 | 70 | 1009.2 |
| 20260506015504 | 10 | 278 | 6.4 | 9.7 | 0.00 | 0.00 | 0.53 | 69 | 1009.1 |
| 20260506015005 | 10 | 277 | 6.4 | 9.7 | 0.00 | 0.00 | 0.53 | 68 | 1008.9 |
| 20260506014505 | 10 | 261 | 6.4 | 11.3 | 0.00 | 0.00 | 0.53 | 68 | 1008.9 |
| 20260506013005 | 10 | 291 | 6.4 | 11.3 | 0.03 | 0.00 | 0.53 | 68 | 1008.6 |
| 20260506012505 | 10 | 264 | 6.4 | 9.7 | 0.03 | 0.00 | 0.53 | 68 | 1008.6 |
| 20260506012005 | 10 | 272 | 6.4 | 12.9 | 0.03 | 0.00 | 0.53 | 68 | 1008.6 |
| 20260506011504 | 10 | 275 | 6.4 | 12.9 | 0.03 | 0.00 | 0.53 | 68 | 1008.5 |
| 20260506011004 | 10 | 270 | 4.8 | 8.0 | 0.03 | 0.00 | 0.53 | 68 | 1008.5 |
| 20260506010505 | 10 | 256 | 8.0 | 16.1 | 0.05 | 0.00 | 0.53 | 67 | 1008.6 |
| 20260506010004 | 10 | 233 | 12.9 | 16.1 | 0.05 | 0.00 | 0.53 | 67 | 1008.6 |
| 20260506005504 | 10 | 231 | 17.7 | 24.1 | 0.05 | 0.00 | 0.53 | 67 | 1008.7 |
| 20260506005004 | 10 | 230 | 20.9 | 24.1 | 0.05 | 0.00 | 0.53 | 67 | 1008.7 |
| 20260506004505 | 10 | 225 | 20.9 | 24.1 | 0.05 | 0.00 | 0.53 | 67 | 1008.7 |
| 20260506004005 | 10 | 227 | 20.9 | 24.1 | 0.03 | 0.00 | 0.51 | 66 | 1008.6 |
| 20260506003505 | 10 | 227 | 19.3 | 24.1 | 0.03 | 0.00 | 0.51 | 67 | 1008.7 |
| 20260506003005 | 10 | 225 | 19.3 | 24.1 | 0.03 | 0.00 | 0.51 | 66 | 1008.7 |
| 20260506002505 | 10 | 225 | 19.3 | 22.5 | 0.03 | 0.00 | 0.51 | 67 | 1008.7 |
| 20260506002004 | 10 | 225 | 19.3 | 20.9 | 0.03 | 0.00 | 0.51 | 67 | 1008.5 |
| 20260506001504 | 10 | 224 | 19.3 | 20.9 | 0.03 | 0.00 | 0.51 | 67 | 1008.3 |
| 20260506001004 | 10 | 224 | 17.7 | 19.3 | 0.05 | 0.00 | 0.51 | 67 | 1008.4 |
| 20260506000504 | 10 | 225 | 17.7 | 19.3 | 0.03 | 0.00 | 0.48 | 68 | 1008.4 |
| 20260506000004 | 10 | 225 | 16.1 | 19.3 | 0.03 | 0.00 | 0.48 | 68 | 1008.1 |
| 20260505235504 | 10 | 224 | 16.1 | 17.7 | 0.03 | 0.00 | 0.48 | 68 | 1008.1 |
| 20260505235004 | 10 | 224 | 16.1 | 17.7 | 0.03 | 0.00 | 0.48 | 68 | 1008.1 |
| 20260505234504 | 10 | 225 | 14.5 | 16.1 | 0.03 | 0.00 | 0.48 | 68 | 1008.1 |
| 20260505234005 | 10 | 225 | 12.9 | 16.1 | 0.03 | 0.00 | 0.48 | 68 | 1007.9 |
| 20260505233505 | 10 | 225 | 12.9 | 14.5 | 0.05 | 0.00 | 0.48 | 68 | 1007.9 |
| 20260505232505 | 10 | 246 | 6.4 | 11.3 | 0.05 | 0.00 | 0.48 | 66 | 1007.9 |
| 20260505232005 | 10 | 270 | 6.4 | 11.3 | 0.10 | 0.00 | 0.48 | 66 | 1007.9 |
| 20260505231504 | 10 | 250 | 8.0 | 12.9 | 0.13 | 0.00 | 0.48 | 66 | 1008.1 |
| 20260505231005 | 10 | 231 | 9.7 | 12.9 | 0.10 | 0.00 | 0.46 | 66 | 1008.1 |
| 20260505230504 | 10 | 225 | 12.9 | 17.7 | 0.15 | 0.00 | 0.46 | 66 | 1007.9 |
| 20260505225504 | 10 | 225 | 11.3 | 16.1 | 0.15 | 0.00 | 0.46 | 66 | 1008.2 |
| 20260505225005 | 10 | 236 | 8.0 | 12.9 | 0.15 | 0.00 | 0.46 | 65 | 1008.1 |
| 20260505224504 | 10 | 252 | 6.4 | 9.7 | 0.18 | 0.00 | 0.46 | 64 | 1008.1 |
| 20260505224005 | 10 | 255 | 4.8 | 6.4 | 0.18 | 0.00 | 0.46 | 64 | 1008.1 |
| 20260505223005 | 10 | 257 | 3.2 | 6.4 | 0.18 | 0.00 | 0.43 | 63 | 1007.9 |
| 20260505222504 | 10 | 296 | 4.8 | 6.4 | 0.18 | 0.00 | 0.43 | 63 | 1007.9 |
| 20260505221505 | 10 | 271 | 6.4 | 9.7 | 0.15 | 0.00 | 0.36 | 61 | 1008.2 |
| 20260505221004 | 10 | 244 | 6.4 | 8.0 | 0.15 | 0.00 | 0.36 | 60 | 1008.3 |
| 20260505220504 | 10 | 248 | 6.4 | 11.3 | 0.10 | 0.00 | 0.30 | 60 | 1008.1 |
| 20260505220004 | 10 | 279 | 6.4 | 11.3 | 0.10 | 0.00 | 0.30 | 60 | 1008.1 |
| 20260505215504 | 10 | 296 | 6.4 | 8.0 | 0.10 | 0.00 | 0.30 | 60 | 1008.1 |
| 20260505215005 | 10 | 288 | 6.4 | 12.9 | 0.05 | 0.00 | 0.28 | 60 | 1007.8 |
| 20260505214505 | 11 | 281 | 6.4 | 12.9 | 0.05 | 0.00 | 0.28 | 60 | 1008.2 |
| 20260505214004 | 10 | 294 | 6.4 | 8.0 | 0.10 | 0.00 | 0.28 | 61 | 1008.2 |
| 20260505213504 | 11 | 276 | 6.4 | 8.0 | 0.05 | 0.00 | 0.23 | 60 | 1008.1 |
| 20260505213005 | 11 | 273 | 6.4 | 8.0 | 0.05 | 0.00 | 0.23 | 60 | 1007.9 |
| 20260505212504 | 11 | 274 | 6.4 | 8.0 | 0.05 | 0.00 | 0.23 | 61 | 1008.1 |
| 20260505212005 | 11 | 264 | 4.8 | 6.4 | 0.03 | 0.00 | 0.20 | 61 | 1007.9 |
| 20260505211504 | 11 | 270 | 4.8 | 6.4 | 0.03 | 0.00 | 0.20 | 61 | 1008.0 |
| 20260505210504 | 11 | 263 | 6.4 | 8.0 | 0.05 | 0.00 | 0.20 | 62 | 1008.0 |
| 20260505210005 | 11 | 260 | 4.8 | 8.0 | 0.05 | 0.00 | 0.20 | 62 | 1008.2 |
| 20260505205004 | 11 | 289 | 4.8 | 6.4 | 0.05 | 0.00 | 0.20 | 63 | 1008.2 |
| 20260505204005 | 11 | 300 | 6.4 | 6.4 | 0.05 | 0.00 | 0.18 | 63 | 1008.2 |
| 20260505203504 | 11 | 296 | 6.4 | 9.7 | 0.10 | 0.00 | 0.18 | 63 | 1008.3 |
| 20260505203004 | 11 | 315 | 6.4 | 12.9 | 0.10 | 0.00 | 0.18 | 63 | 1008.3 |
| 20260505202504 | 11 | 316 | 8.0 | 12.9 | 0.13 | 0.00 | 0.18 | 63 | 1008.2 |
| 20260505202004 | 11 | 303 | 8.0 | 12.9 | 0.15 | 0.00 | 0.18 | 63 | 1008.5 |
| 20260505201004 | 11 | 23 | 3.2 | 6.4 | 0.18 | 0.00 | 0.18 | 64 | 1008.6 |
| 20260505200504 | 11 | 6 | 4.8 | 6.4 | 0.15 | 0.00 | 0.15 | 63 | 1008.5 |
| 20260505195505 | 11 | 300 | 6.4 | 8.0 | 0.15 | 0.00 | 0.15 | 63 | 1009.0 |
| 20260505194504 | 11 | 302 | 4.8 | 11.3 | 0.13 | 0.00 | 0.13 | 62 | 1008.4 |
| 20260505194004 | 11 | 337 | 6.4 | 11.3 | 0.13 | 0.00 | 0.13 | 61 | 1008.4 |
| 20260505192503 | 11 | 307 | 12.9 | 22.5 | 0.05 | 0.00 | 0.05 | 56 | 1008.2 |
| 20260505192004 | 11 | 315 | 11.3 | 16.1 | 0.03 | 0.00 | 0.03 | 53 | 1008.6 |
| 20260505191505 | 12 | 348 | 9.7 | 16.1 | 0.00 | 0.00 | 0.00 | 53 | 1008.5 |
| 20260505191004 | 12 | 355 | 14.5 | 16.1 | 0.00 | 0.00 | 0.00 | 51 | 1008.4 |
| 20260505190503 | 13 | 348 | 12.9 | 17.7 | 0.00 | 0.00 | 0.00 | 45 | 1008.2 |
| 20260505190004 | 13 | 348 | 14.5 | 17.7 | 0.00 | 0.00 | 0.00 | 46 | 1008.0 |
| 20260505185504 | 13 | 359 | 12.9 | 17.7 | 0.00 | 0.00 | 0.00 | 39 | 1008.1 |
| 20260505185005 | 13 | 347 | 11.3 | 19.3 | 0.00 | 0.00 | 0.00 | 39 | 1008.1 |
| 20260505184004 | 15 | 324 | 12.9 | 17.7 | 0.00 | 0.00 | 0.00 | 34 | 1008.1 |
| 20260505183504 | 15 | 298 | 12.9 | 17.7 | 0.00 | 0.00 | 0.00 | 31 | 1007.9 |
| 20260505183004 | 16 | 266 | 11.3 | 14.5 | 0.00 | 0.00 | 0.00 | 30 | 1007.9 |
| 20260505182505 | 16 | 285 | 11.3 | 17.7 | 0.00 | 0.00 | 0.00 | 30 | 1007.7 |
| 20260505182004 | 16 | 304 | 11.3 | 17.7 | 0.00 | 0.00 | 0.00 | 30 | 1007.5 |
| 20260505181504 | 16 | 296 | 11.3 | 16.1 | 0.00 | 0.00 | 0.00 | 30 | 1007.3 |
| 20260505181004 | 16 | 288 | 12.9 | 16.1 | 0.00 | 0.00 | 0.00 | 30 | 1007.4 |
| 20260505180504 | 15 | 273 | 12.9 | 16.1 | 0.00 | 0.00 | 0.00 | 30 | 1007.4 |
| 20260505175004 | 15 | 242 | 12.9 | 19.3 | 0.00 | 0.00 | 0.00 | 30 | 1007.3 |
| 20260505174505 | 15 | 247 | 12.9 | 19.3 | 0.00 | 0.00 | 0.00 | 30 | 1007.3 |
| 20260505174005 | 15 | 263 | 12.9 | 20.9 | 0.00 | 0.00 | 0.00 | 30 | 1007.0 |
| 20260505173504 | 15 | 264 | 16.1 | 20.9 | 0.00 | 0.00 | 0.00 | 30 | 1007.1 |
| 20260505172504 | 15 | 238 | 20.9 | 27.4 | 0.00 | 0.00 | 0.00 | 30 | 1007.2 |
| 20260505172003 | 15 | 240 | 22.5 | 27.4 | 0.00 | 0.00 | 0.00 | 30 | 1007.3 |
| 20260505171504 | 15 | 243 | 20.9 | 25.7 | 0.00 | 0.00 | 0.00 | 30 | 1007.3 |
| 20260505171005 | 15 | 270 | 17.7 | 25.7 | 0.00 | 0.00 | 0.00 | 30 | 1007.5 |
| 20260505170504 | 15 | 286 | 16.1 | 24.1 | 0.00 | 0.00 | 0.00 | 30 | 1007.4 |
| 20260505165504 | 16 | 252 | 16.1 | 19.3 | 0.00 | 0.00 | 0.00 | 30 | 1007.2 |
| 20260505165005 | 15 | 246 | 17.7 | 24.1 | 0.00 | 0.00 | 0.00 | 30 | 1007.2 |
| 20260505164504 | 15 | 245 | 16.1 | 24.1 | 0.00 | 0.00 | 0.00 | 31 | 1007.2 |
| 20260505164004 | 15 | 274 | 16.1 | 25.7 | 0.00 | 0.00 | 0.00 | 31 | 1007.4 |
| 20260505163503 | 15 | 264 | 17.7 | 25.7 | 0.00 | 0.00 | 0.00 | 33 | 1007.4 |
| 20260505163004 | 15 | 262 | 17.7 | 25.7 | 0.00 | 0.00 | 0.00 | 36 | 1007.3 |
| 20260505162505 | 15 | 254 | 17.7 | 22.5 | 0.00 | 0.00 | 0.00 | 39 | 1007.4 |
| 20260505162004 | 14 | 237 | 20.9 | 29.0 | 0.00 | 0.00 | 0.00 | 51 | 1007.3 |
| 20260505161503 | 14 | 233 | 24.1 | 29.0 | 0.00 | 0.00 | 0.00 | 55 | 1007.2 |
| 20260505161004 | 14 | 225 | 24.1 | 27.4 | 0.00 | 0.00 | 0.00 | 55 | 1007.1 |
| 20260505160506 | 15 | 225 | 24.1 | 27.4 | 0.00 | 0.00 | 0.00 | 52 | 1007.2 |